Other Surface Observations
Issued by NWS

Current Version | Previous Version | Text Only | Print | Product List | Glossary On
Versions: 1 2 3 4 5 6 7 8 9 10 11 12 13 14 15 16 17 18 19 20 21 22 23 24 25 26 27 28 29 30 31 32 33 34 35 36 37 38 39 40 41 42 43 44 45 46 47 48 49 50
000
SXUS52 KTAE 310918
OSOTAE
OSOTAE
North Florida/South Alabama/Southwest Georgia Weather Roundup
National Weather Service Tallahassee Florida
500 AM EDT FRI OCT 31 2014

Note: "fair" indicates few or no clouds below 12,000 feet with no
significant weather and/or obstructions to visibility.

!FLZ017-115-028-034-025-311000
...North Florida...

CITY           SKY/WX    TMP DP  RH WIND       PRES   REMARKS
TALLAHASSEE    CLEAR     44  39  82 NW3       29.92F
APALACHICOLA   CLEAR     54  44  69 N8        29.93F
PERRY          CLEAR     50  46  87 NW3       29.91S
CROSS CITY       N/A     54  49  83 N5        29.88F
JACKSONVILLE   PTCLDY    58  58 100 NW3       29.85S
$$

!FLZ112-006-005-002-011-311000
...Florida Panhandle...

CITY           SKY/WX    TMP DP  RH WIND       PRES   REMARKS
MARIANNA       CLEAR     46  44  93 CALM      29.95F
BONIFAY        FAIR      45  44  97 CALM      29.97F
PANAMA CITY NW FAIR      47  42  83 N3        29.95F
TYNDALL AFB    CLEAR     55  44  67 N7        29.95F
TYND DRONE APT NOT AVBL
DE FUNIAK SPR  FAIR      47  42  82 N6        29.97S WCI  45
EGLIN AFB      CLEAR     50  41  70 N5        29.97F
DESTIN         CLEAR     56  46  69 N7        29.98S
HURLBURT       CLEAR     46  39  75 N7        29.97S WCI  43
CRESTVIEW      CLEAR     43  41  93 CALM      29.99F
PENSACOLA      CLEAR     49  41  74 N7        29.99S
$$

!ALZ063-066-311000
...South Alabama...

CITY           SKY/WX    TMP DP  RH WIND       PRES   REMARKS
DOTHAN         CLEAR     45  40  82 CALM      29.99S
OZARK CAIRNS   CLEAR     45  40  83 W1        29.96F
FT RUCKER HELI CLEAR     40  38  93 CALM      29.96S FOG
RUCKER HELI 3  NOT AVBL
RUCKER HELI 2  FAIR      44  40  85 CALM      29.95F
FLORALA APT    CLEAR     49  41  74 NW5       29.99F
ANDALUSIA      CLEAR     45  39  79 CALM      29.98S
TROY           CLEAR     40  38  93 CALM      29.97F
EUFALA         FAIR      39  38  96 CALM      29.95S
MOBILE         CLEAR     45  41  86 NW3       30.02S
$$

!GAZ120>161-311000
...Southwest and South Central Georgia...

CITY           SKY/WX    TMP DP  RH WIND       PRES   REMARKS
THOMASVILLE    FAIR      50  46  87 NW5       29.93S
BAINBRIDGE     CLEAR     50  45  81 W3        29.94F
MOODY AFB      CLEAR     49  45  87 NW7       29.89F
VALDOSTA       CLEAR     48  42  80 CALM      29.90S
MOULTRIE       CLEAR     52  46  82 N3        29.92F
BLAKELY        CLEAR     52  45  76 CALM      29.95F
ALBANY         CLEAR     46  43  89 CALM      29.95F
TIFTON         FAIR      51  43  75 NW5       29.92R
FITZGERALD     FAIR      54  40  57 N7        29.93F
CORDELE        FAIR      46  44  92 CALM      29.94F
AMERICUS       FAIR      43  43 100 CALM      29.95F
HOMERVILLE     FAIR      50  48  93 CALM      29.90S
$$

!GMZ750-755-770-775-311000
...Coastal and Buoy Obs...

STATION/POSITION TIME  TEMP    WIND        PRES    VSBY  WAVE
                       AIR SEA DIR/SP/G                  HT/PER
                 (UTC) (F)     (DEG/KT/KT) (MB)    (MI)  (FT/S)
KEATON BEACH     0900   55     360/  6/  9 1012.5F
CEDAR KEY        0855   63      10/  5/  7 1012.2F
C TOWER          0900   64     350/ 18/ 20 1012.9F
APALACHICOLA BUO 0900   71 80  350/ 12/ 17 1012.3F         3/ 4
PANAMA CITY BUOY 0844   70 78  360/ 14/ 17 1013.6F         3/ 5
MOBILE BUOY      0828   69 77  360/ 16/ 17 1015.8F         3/ 4
ORANGE BCH AL BU 0900   66 76  360/ 12/ 16 1015.2S         1/ 3
$$



USA.gov is the U.S. government's official web portal to all federal, state and local government web resources and services.